RH
25 25 28 29 30 35 36 38 43 46 45 46 40 38 47 47 45 48 56 64 67 72 67 75 75 78 82 85 87 79 80 72
24 29 31 34 35 37 40 44 46 43 42 42 38 34 38 42 45 49 56 59 72 75 71 75 74 79 74 86 86 85 90 82
28 30 32 38 40 43 44 44 46 45 43 44 44 43 36 37 42 51 54 65 76 80 77 73 76 81 75 85 84 89 89 88
30 32 35 38 41 47 47 48 50 51 52 49 47 47 47 48 49 50 51 60 70 81 80 77 82 81 84 88 82 85 87 93
31 33 36 38 40 45 48 51 52 51 54 57 63 56 47 33 40 44 54 59 71 80 81 80 85 82 86 83 79 82 76 90
35 35 35 34 40 46 51 54 54 55 58 65 71 72 58 47 42 44 54 66 74 76 82 84 89 87 88 86 84 80 74 82
35 34 35 36 41 49 54 57 57 60 67 71 77 80 75 63 47 47 51 68 82 84 87 87 86 86 91 92 91 81 75 75
36 36 38 41 47 53 59 62 64 66 74 76 80 83 82 77 64 55 56 77 88 91 91 92 85 85 78 73 82 86 81 79
38 38 42 44 49 55 65 68 69 71 79 82 82 84 83 75 68 58 59 67 76 87 91 91 87 82 74 82 84 84 83 85
41 40 44 47 52 60 71 68 67 75 83 86 87 87 89 80 71 63 67 70 70 89 91 90 91 88 86 87 89 87 85 84
41 41 45 48 54 58 69 69 74 79 83 86 87 88 89 83 67 67 66 70 72 74 84 89 84 79 77 81 90 84 87 82
41 42 44 48 52 57 67 72 76 83 86 86 88 90 90 91 77 68 66 67 67 70 76 82 82 81 85 84 79 90 86 83
42 43 45 50 55 58 62 74 78 81 84 86 88 88 89 92 94 90 74 73 75 70 77 73 74 81 83 92 92 91 88 82
46 45 48 52 56 60 63 74 80 80 83 88 88 89 90 92 93 94 95 83 90 89 77 74 75 81 86 91 91 89 88 79
52 50 51 54 57 60 64 79 85 88 84 90 94 93 92 93 92 94 92 96 94 92 84 80 80 80 79 80 87 92 87 85
56 57 58 58 61 63 64 72 80 88 88 92 97 96 90 93 94 96 93 95 92 94 92 92 91 88 88 88 90 95 95 93
61 60 62 66 67 67 67 71 76 84 92 92 87 88 89 92 94 95 95 92 94 92 95 95 93 88 99 100 97 95 96 97
73 68 69 72 75 69 73 71 72 80 94 96 92 95 95 96 93 94 98 96 94 98 97 94 96 96 98 99 97 92 95 95
81 78 76 80 83 74 69 66 72 82 90 96 96 97 98 98 96 94 97 98 100 99 96 97 96 93 97 96 94 92 94 95
Wind_Speed
5 2 6 8 9 11 11 9 11 10 9 10 9 12 11 11 12 12 16 14 17 14 13 12 10 9 8 8 9 9 7 8
4 4 6 8 9 11 13 14 13 10 9 10 10 11 11 12 12 16 14 14 16 15 12 13 13 12 14 11 9 11 6 6
4 5 7 9 10 11 12 13 14 12 10 11 11 12 13 11 12 13 15 13 13 13 14 14 15 11 15 11 11 7 5 7
4 8 9 9 10 12 12 13 15 14 14 12 12 13 13 13 12 11 12 18 18 17 16 14 14 12 11 12 12 12 9 8
7 9 11 12 11 11 13 14 15 13 15 13 15 15 16 12 14 11 12 17 17 16 18 17 13 11 13 13 11 10 11 10
7 10 11 11 12 13 14 15 15 16 15 14 11 15 15 14 14 16 15 14 14 16 18 17 14 11 12 12 10 13 11 10
8 10 11 12 12 13 14 16 17 15 15 16 16 17 17 17 16 15 12 10 10 13 14 14 14 16 15 15 12 19 15 13
9 11 12 13 15 16 15 17 18 17 16 17 17 17 17 22 23 16 13 11 10 12 14 14 15 17 15 14 19 20 17 12
10 12 13 15 16 17 17 19 18 18 16 17 16 17 11 15 22 16 12 11 12 11 15 15 17 15 12 11 9 12 12 11
11 12 13 14 16 17 17 19 19 18 17 15 17 15 16 19 24 16 12 13 12 12 13 14 12 12 12 11 9 13 13 13
12 12 14 14 15 15 16 18 19 18 17 14 15 18 18 18 15 15 14 12 16 17 16 16 14 14 15 14 9 13 15 11
11 12 14 14 15 16 16 18 19 19 18 16 18 19 20 16 11 13 13 14 16 15 14 14 15 16 12 10 14 13 13 10
11 13 14 15 17 17 17 18 19 18 17 16 17 18 19 16 15 18 9 12 13 15 12 14 16 15 13 10 3 3 12 12
12 13 13 15 16 16 17 18 20 20 16 17 16 18 18 17 16 16 10 9 6 6 10 14 15 16 16 14 21 23 18 15
12 13 14 15 15 16 17 16 17 19 19 18 17 18 18 15 14 14 15 13 5 8 11 10 10 12 16 17 14 11 10 10
12 13 14 15 16 16 17 17 16 16 16 17 17 15 14 15 15 13 15 16 15 12 2 5 3 3 2 10 12 10 8 8
12 13 14 14 16 16 16 16 16 15 15 17 17 17 16 19 15 13 16 14 18 16 15 10 8 5 8 8 9 7 7 7
12 12 13 13 14 14 15 15 15 17 15 15 16 16 16 17 17 17 18 15 16 17 16 14 12 10 13 13 16 10 9 9
12 11 12 13 13 14 14 14 15 16 17 16 15 15 15 15 15 16 15 14 15 13 16 14 12 12 16 17 20 13 12 12
Wind_Direction
85 330 13 357 352 341 331 329 320 316 296 278 266 271 238 241 235 228 207 208 214 204 205 192 184 197 190 182 189 204 203 224
100 48 21 1 359 346 340 331 324 314 307 294 278 263 247 238 229 247 222 216 208 204 206 194 188 188 198 185 190 195 195 192
81 26 14 7 356 353 339 332 326 314 304 297 292 287 281 278 229 227 232 221 197 203 208 202 194 187 199 190 180 177 185 177
24 9 7 356 351 350 338 331 322 313 306 293 282 264 256 261 253 223 235 216 209 202 191 212 188 184 192 182 182 182 186 177
19 360 357 350 351 344 336 332 320 309 313 298 292 283 279 254 241 216 220 241 218 203 196 206 189 185 188 185 181 192 196 186
13 5 355 341 348 342 338 329 318 319 314 300 288 276 276 270 261 238 209 213 218 212 204 196 180 184 182 180 183 199 202 193
11 5 354 350 350 340 338 332 326 322 319 305 291 277 270 271 258 253 209 203 203 209 200 196 184 178 178 186 171 233 210 194
9 3 357 352 347 346 344 336 324 327 318 307 294 281 267 259 260 258 232 203 197 199 197 198 190 192 198 196 174 222 214 202
11 5 1 353 349 349 342 336 329 330 318 311 299 289 268 258 250 246 251 204 201 187 202 196 205 212 209 198 185 200 208 204
8 2 5 355 352 349 342 336 335 333 323 322 310 307 293 252 244 226 225 207 205 179 194 202 195 188 184 182 187 204 209 205
2 1 3 1 356 352 347 340 340 335 328 329 323 326 319 316 244 220 216 212 207 200 193 189 179 202 180 177 191 214 211 201
354 2 2 4 359 356 356 346 344 343 336 337 339 339 335 332 304 243 231 221 223 206 171 185 185 188 183 191 180 210 215 200
360 2 4 5 1 355 360 356 348 346 339 340 350 345 340 339 340 328 255 231 227 194 175 186 186 191 186 189 191 274 232 217
5 2 5 8 1 355 359 3 351 348 349 352 359 349 343 344 345 337 306 233 201 209 188 193 198 193 171 169 163 216 218 218
7 2 1 7 1 356 1 1 357 350 355 357 4 344 343 350 349 349 354 349 189 190 203 189 197 198 189 177 167 182 195 196
10 2 1 2 1 359 3 1 360 352 359 2 3 346 348 1 4 349 21 5 17 356 55 52 19 83 201 170 150 159 166 177
5 1 3 2 2 359 359 2 358 2 6 9 359 354 360 6 7 14 38 17 30 19 23 28 62 42 349 58 98 107 86 91
8 5 4 3 360 357 2 4 4 11 12 7 2 3 7 13 8 15 26 19 35 31 17 27 20 31 23 80 83 79 76 65
15 6 9 9 359 0 10 10 18 19 15 8 6 9 13 16 19 24 23 25 32 46 32 17 21 27 29 71 84 83 75 66